User: anonymous   Login
Location: Unspecified
(40.7945°N, 111.1337°W)
Time: 07:23:50
(UTC-06:00)
Language:

Vanguard 1 - Orbit

View from above orbital plane
View from above orbital plane
View from above satellite
View from above satellite

Ground track
Ground track

The orbit data is extracted from the following two-line orbital elements,

1     5U 58002B   19174.33014962 +.00000007 +00000-0 +25263-5 0  9990
2     5 034.2441 257.5152 1841935 171.9356 191.5658 10.84762303166142
Epoch (UTC): 23 June 2019 07:55:24
Eccentricity: 0.1841935
inclination: 34.2441°
perigee height: 654 km
apogee height: 3830 km
right ascension of ascending node: 257.5152°
argument of perigee: 171.9356°
revolutions per day: 10.84762303
mean anomaly at epoch: 191.5658°
orbit number at epoch: 16614

The dashed part of the orbit path shows where the satellite is in the earth's shadow,  

DLR